sat.trackr.live / text

‹ back to catalog

STARLINK-31799

NORAD 59652 · 2024-082X

PAYLOAD ACTIVE UNKNOWN

§ Identity

Operator
Country
US
Launch date
2024-05-03
Launch site
AFETR
Launch vehicle
Mass (kg)
RCS (m²)

Purposes: comms

External: N2YO · Heavens-Above · Gunter

§ Orbital elements

Epoch: 2026-05-25T04:23:20.528736Z

Period
94.27 min
Inclination
43.0020°
Eccentricity
0.0000811
Mean motion
15.27584545 rev/d
Perigee alt
482.5 km
Apogee alt
483.6 km
Semi-major
6,861.2 km
B*
2.8040e-5
RAAN
57.1438°
Arg perigee
269.5644°
Mean anomaly
90.5114°
Rev number
11,668

§ Raw data

STARLINK-317991 59652U 24082X   26145.18287649  .00000510  00000+0  28040-4 0  99992 59652  43.0020  57.1438 0000811 269.5644  90.5114 15.27584545116680

JSON: /api/v1/satellites/59652 · /tle

For live sub-satellite position, see the globe view (requires WebGL).

§ Visibility from observer

Set your observer location to see the next 7 days of passes ≥ 10°. The values pass through the URL so the page stays shareable.

No JS? Fill the form by hand. The geolocation button needs JavaScript.